TimeEST,TemperatureF,Dew PointF,Humidity,Sea Level PressureIn,VisibilityMPH,Wind Direction,Wind SpeedMPH,Gust SpeedMPH,PrecipitationIn,Events,Conditions,WindDirDegrees,DateUTC
12:55 AM,19.8,15.1,82,30.43,10.0,WSW,5.8,-,N/A,,Clear,240,2013-01-18 05:55:00
1:55 AM,17.8,14.5,87,30.45,10.0,SW,5.8,-,N/A,,Clear,220,2013-01-18 06:55:00
2:55 AM,17.4,14.2,87,30.47,10.0,SW,6.9,-,N/A,,Clear,220,2013-01-18 07:55:00
3:55 AM,17.8,14.9,88,30.48,10.0,SSW,5.8,-,N/A,,Clear,210,2013-01-18 08:55:00
4:55 AM,17.2,14.7,90,30.46,10.0,SSW,5.8,-,N/A,,Clear,200,2013-01-18 09:55:00
5:55 AM,18.0,14.5,86,30.47,10.0,SSW,5.8,-,N/A,,Clear,200,2013-01-18 10:55:00
6:55 AM,18.5,15.1,86,30.47,10.0,South,6.9,-,N/A,,Clear,190,2013-01-18 11:55:00
7:55 AM,18.7,15.4,87,30.48,10.0,SSW,6.9,-,N/A,,Clear,210,2013-01-18 12:55:00
8:55 AM,21.4,17.6,85,30.48,10.0,SSW,8.1,-,N/A,,Clear,200,2013-01-18 13:55:00
9:55 AM,26.1,19.6,76,30.48,10.0,SSW,10.4,-,N/A,,Clear,210,2013-01-18 14:55:00
10:32 AM,28.4,21.2,74,30.43,10.0,SW,13.8,-,N/A,,Clear,220,2013-01-18 15:32:00
10:55 AM,29.8,20.7,69,30.47,10.0,SSW,15.0,-,N/A,,Clear,210,2013-01-18 15:55:00
11:55 AM,33.1,21.6,63,30.42,10.0,SSW,15.0,-,N/A,,Clear,210,2013-01-18 16:55:00
12:55 PM,34.7,21.7,59,30.38,10.0,SSW,19.6,28.8,N/A,,Clear,210,2013-01-18 17:55:00
1:55 PM,36.3,21.9,56,30.33,10.0,SW,17.3,-,N/A,,Clear,220,2013-01-18 18:55:00
2:55 PM,37.9,21.4,51,30.29,10.0,SW,20.7,-,N/A,,Clear,220,2013-01-18 19:55:00
3:55 PM,37.8,22.3,54,30.25,10.0,SSW,20.7,25.3,N/A,,Clear,210,2013-01-18 20:55:00
4:55 PM,37.2,21.6,53,30.21,10.0,SSW,19.6,25.3,N/A,,Clear,200,2013-01-18 21:55:00
5:55 PM,36.0,20.7,54,30.19,10.0,SSW,20.7,28.8,N/A,,Clear,200,2013-01-18 22:55:00
6:55 PM,36.3,21.4,55,30.17,10.0,SSW,24.2,31.1,N/A,,Clear,200,2013-01-18 23:55:00
7:55 PM,36.9,21.9,55,30.15,10.0,SSW,23.0,33.4,N/A,,Clear,200,2013-01-19 00:55:00
8:55 PM,36.9,23.7,59,30.11,10.0,SSW,23.0,34.5,N/A,,Clear,200,2013-01-19 01:55:00
9:55 PM,37.2,25.0,61,30.09,10.0,SSW,26.5,32.2,0.01,,Clear,210,2013-01-19 02:55:00
10:55 PM,37.2,25.5,63,30.09,10.0,SSW,19.6,-,N/A,,Clear,210,2013-01-19 03:55:00
11:55 PM,37.9,25.3,60,30.09,10.0,SW,20.7,27.6,N/A,,Clear,220,2013-01-19 04:55:00